Location: Winthrop
(48.4780°N, 120.1850°W)
Time: 17:12:48
(UTC-07:00)

Explorer 7 - Pass Details

Date: 30 January 2023
Orbit: 478 x 657 km, 50.3° (Epoch: 30 March)

Event Time Altitude Azimuth Distance (km) Brightness Sun altitude
Rises 12:50:14 0° 212° (SSW) 2,692 11.5 23.5°
Reaches altitude 10° 12:52:38 10° 200° (SSW) 1,837 11.4 23.4°
Maximum altitude 12:56:13 28° 141° (SE) 1,111 9.2 23.3°
Drops below altitude 10° 13:00:00 10° 83° (E) 1,947 9.5 23.2°
Sets 13:02:36 0° 72° (ENE) 2,888 10.2 23.1°
